Shemya, AK

12:59 AM HDT on March 27, 2017 (GMT -0900)
Eareckson Air Station

Weather History for PASY - November, 2012

Change the Weather History Date:

Sunday, November 11, 2012

  Actual Average Record
Temperature  
Mean Temperature 32 °F -  
Max Temperature 37 °F 40 °F 47 °F (1990)
Min Temperature 28 °F 33 °F 25 °F (1979)
Degree Days  
Heating Degree Days 32    
Moisture  
Dew Point 27 °F    
Average Humidity 74    
Maximum Humidity 87    
Minimum Humidity 57    
Precipitation  
Precipitation 0.00 in - - ()
Sea Level Pressure  
Sea Level Pressure 29.81 in    
Wind  
Wind Speed 10 mph (NNW)    
Max Wind Speed 23 mph    
Max Gust Speed 32 mph    
Visibility 10 miles    
Events Snow    
Averages and records for this station are not official NWS values.
T = Trace of Precipitation, MM = Missing Value Source: NWS Daily Summary

Daily Weather History Graph

Daily Weather History Graph

Search for Another Location

Airport or City:

Trip Planner

Search our weather history database for the weather conditions in past years. The results will help you decide how hot, cold, wet, or windy it might be!

Date:

Astronomy

Nov. 10, 2012 Rise Set
Actual Time 9:38 AM HST 6:35 PM HST
Civil Twilight 9:00 AM HST 7:13 PM HST
Nautical Twilight 8:19 AM HST 7:54 PM HST
Astronomical Twilight 7:39 AM HST 8:35 PM HST
Moon 6:59 AM HST (11/11) 5:19 PM HST (11/11)
Length of Visible Light 10h 12m
Length of Day
8h 57m
Waning Crescent, 6% of the Moon is Illuminated
Nov 11
Waning Crescent
Nov 13
New
Nov 20
First Quarter
Nov 28
Full
Dec 6
Last Quarter

Hourly Weather History & Observations

Time (HST) Temp. Windchill Dew Point Humidity Pressure Visibility Wind Dir Wind Speed Gust Speed Precip Events Conditions
12:56 AM 35.1 °F 25.5 °F 28.9 °F 78% 29.88 in 10.0 mi SW 15.0 mph - N/A   Partly Cloudy
1:56 AM 35.1 °F 25.9 °F 27.0 °F 72% 29.89 in 10.0 mi SW 13.8 mph - N/A   Partly Cloudy
2:56 AM 35.1 °F 25.2 °F 26.1 °F 70% 29.88 in 10.0 mi SW 16.1 mph - N/A   Clear
3:56 AM 34.0 °F 26.6 °F 26.1 °F 73% 29.88 in 10.0 mi WSW 9.2 mph - N/A   Scattered Clouds
4:56 AM 32.0 °F 23.6 °F 28.0 °F 85% 29.89 in 10.0 mi West 10.4 mph - N/A   Clear
5:56 AM 33.1 °F 26.9 °F 28.0 °F 82% 29.89 in 10.0 mi West 6.9 mph - N/A   Clear
6:56 AM 34.0 °F - 28.0 °F 79% 29.89 in 9.0 mi Calm Calm - N/A   Overcast
7:03 AM 33.8 °F 30.8 °F 26.6 °F 75% 29.89 in 10.0 mi NNW 3.5 mph - N/A   Overcast
7:30 AM 30.2 °F 26.7 °F 24.8 °F 80% 29.88 in 10.0 mi NNW 3.5 mph - N/A   Scattered Clouds
7:56 AM 28.9 °F - 24.1 °F 82% 29.88 in 10.0 mi Calm Calm - N/A   Partly Cloudy
8:56 AM 28.0 °F 24.2 °F 24.1 °F 85% 29.88 in 10.0 mi NNW 3.5 mph - N/A   Clear
9:56 AM 28.9 °F - 24.1 °F 82% 29.89 in 10.0 mi Calm Calm - N/A   Partly Cloudy
10:56 AM 33.1 °F 26.1 °F 28.0 °F 82% 29.88 in 10.0 mi NNW 8.1 mph - N/A   Clear
11:56 AM 35.1 °F 31.0 °F 28.0 °F 76% 29.89 in 10.0 mi North 4.6 mph - N/A   Scattered Clouds
12:56 PM 34.0 °F 29.8 °F 28.9 °F 82% 29.88 in 10.0 mi North 4.6 mph - N/A   Partly Cloudy
1:56 PM 37.9 °F 35.5 °F 28.0 °F 68% 29.86 in 10.0 mi North 3.5 mph - N/A   Clear
2:56 PM 37.0 °F 32.4 °F 27.0 °F 67% 29.83 in 10.0 mi NE 5.8 mph - N/A   Scattered Clouds
3:56 PM 37.0 °F 31.6 °F 26.1 °F 65% 29.81 in 10.0 mi NNE 6.9 mph - N/A   Overcast
4:56 PM 36.0 °F 32.1 °F 27.0 °F 70% 29.78 in 10.0 mi NNE 4.6 mph - N/A   Overcast
5:56 PM 36.0 °F 28.5 °F 27.0 °F 70% 29.76 in 10.0 mi NE 10.4 mph - N/A Snow Light Snow
6:56 PM 36.0 °F 27.5 °F 27.0 °F 70% 29.74 in 10.0 mi NNE 12.7 mph - N/A   Overcast
7:56 PM 35.1 °F 26.4 °F 28.9 °F 78% 29.71 in 10.0 mi NNE 12.7 mph - N/A   Overcast
8:56 PM 36.0 °F 26.7 °F 26.1 °F 67% 29.68 in 10.0 mi North 15.0 mph - N/A   Overcast
9:56 PM 37.0 °F 27.0 °F 27.0 °F 67% 29.64 in 10.0 mi North 18.4 mph - N/A   Overcast
10:56 PM 37.0 °F 25.9 °F 26.1 °F 65% 29.61 in 10.0 mi NNE 23.0 mph - N/A   Overcast
11:28 PM 33.8 °F 21.6 °F 30.2 °F 87% 29.59 in 5.0 mi North 23.0 mph - N/A Snow Light Snow
11:56 PM 35.1 °F 23.8 °F 30.0 °F 82% 29.56 in 6.0 mi North 20.7 mph 32.2 mph N/A Snow Light Snow